Theta_e
349 348 343 336 335 336 335 335 333 331 328 329 331 333 335 335 335 334 334 333 331 329 325 325 326 319 311 310 311 313 316 318 321 323 326 329 329 331 333 336 338 338 339 339 339 338 338 337 337 337 337 337 336 337 337 337 337 336 337 337 336 336 336 336 336 335 335 335 335 336 336 335 334 334 333 332 330 328 327 327 330 327 314 310 310
349 348 344 336 336 336 335 335 333 330 326 328 331 333 335 335 334 334 333 331 329 326 324 325 322 313 310 311 311 313 315 319 321 323 326 328 331 333 337 338 339 339 339 339 339 338 338 337 337 337 337 337 337 337 337 337 337 337 336 336 336 335 336 336 335 335 335 335 335 335 335 335 334 334 333 330 326 326 326 322 324 322 313 310 310
348 348 344 337 336 336 336 335 333 328 325 328 330 332 333 333 333 332 331 329 326 324 324 323 316 310 310 310 311 313 315 319 322 324 326 330 333 336 338 339 339 339 339 339 338 338 338 338 337 337 337 337 337 337 337 337 337 336 336 336 335 335 335 335 335 335 335 335 334 333 333 333 334 333 330 325 322 323 322 316 313 313 311 310 308
348 348 343 337 336 336 335 335 333 325 323 327 328 330 331 332 331 330 329 326 324 323 323 318 311 310 311 310 311 313 313 318 322 324 326 331 336 338 338 339 339 339 339 339 338 338 338 338 338 338 338 338 337 337 337 337 337 336 336 336 335 336 336 336 336 335 334 333 330 330 331 331 329 325 322 319 317 316 315 312 309 309 309 308 307
349 347 343 338 336 337 335 335 330 321 322 325 325 327 329 329 328 327 325 323 323 322 318 312 310 310 311 310 311 312 313 316 321 324 326 331 336 338 339 339 340 339 339 338 338 338 338 338 338 338 338 338 338 337 337 336 335 335 334 333 333 333 332 333 333 333 332 329 328 331 331 330 326 321 319 316 315 312 311 310 309 308 308 307 307
349 347 342 337 337 337 335 335 326 318 321 322 322 324 325 325 324 323 322 322 320 317 313 310 310 310 310 311 310 312 314 315 319 323 326 330 335 338 338 338 339 339 339 339 339 339 339 338 338 337 337 336 336 336 335 333 332 331 330 329 328 326 324 322 322 324 325 325 328 332 331 329 326 324 321 317 314 310 309 308 308 307 307 308 309
348 346 342 338 337 336 336 333 321 317 319 320 320 321 321 321 321 321 320 318 315 312 311 310 310 310 311 311 311 311 313 315 318 322 326 330 334 337 337 338 338 338 339 339 339 338 338 337 337 336 336 335 335 334 333 331 329 326 324 321 318 316 313 313 314 313 319 328 332 331 331 329 326 326 325 321 314 308 309 308 308 308 309 310 310
347 346 343 340 338 335 336 330 318 317 318 318 319 318 318 318 320 319 317 314 312 310 310 310 310 310 311 311 311 311 312 315 318 321 326 330 334 336 336 337 338 339 339 338 337 336 336 335 335 335 335 335 334 333 331 327 322 318 314 312 310 309 309 309 309 308 317 329 331 329 330 328 327 328 324 319 312 309 311 309 308 308 309 309 309
347 345 344 343 339 335 336 327 316 317 317 318 318 317 316 316 316 315 314 313 311 310 310 310 310 311 311 312 313 312 312 315 319 322 324 328 332 335 336 336 336 338 337 336 335 335 333 332 332 332 333 332 332 331 327 320 315 312 310 309 309 308 309 307 309 317 325 328 330 330 329 327 325 322 315 312 310 310 311 309 308 308 308 308 308
347 346 344 343 339 335 336 326 316 317 317 317 317 317 315 314 314 313 313 312 310 310 310 310 310 311 311 313 314 313 313 314 317 321 323 325 329 332 334 333 331 333 333 334 334 332 331 329 328 328 328 325 324 324 320 314 311 311 309 309 308 308 309 308 317 326 328 327 328 327 324 324 321 317 314 312 311 310 310 309 308 308 309 309 309
347 346 344 344 338 335 336 326 316 316 317 316 316 316 316 314 314 314 313 312 311 311 310 310 310 311 312 313 314 314 313 314 315 317 319 322 326 328 329 328 327 328 329 331 330 329 328 327 326 325 323 318 316 315 313 311 310 309 309 309 308 309 308 314 326 327 326 326 326 323 320 322 323 321 319 315 314 314 313 311 309 310 310 310 311
347 345 344 343 337 336 337 329 318 316 317 316 316 315 316 316 315 314 314 313 312 311 311 311 310 310 311 312 313 314 314 314 314 315 316 319 323 324 323 323 324 326 326 327 328 328 328 326 324 323 319 314 312 312 311 310 310 309 309 309 309 310 307 316 326 327 328 329 329 329 328 328 327 324 322 322 322 320 317 314 312 312 311 311 311
347 345 344 341 336 336 336 332 323 318 319 318 316 314 314 315 315 315 315 314 313 312 312 311 311 312 312 312 312 314 315 315 313 313 315 317 320 322 322 322 324 325 325 326 327 326 324 322 321 318 315 313 311 310 309 309 309 309 309 309 309 310 310 318 324 326 330 330 331 332 332 331 328 323 323 324 322 319 316 314 313 312 312 311 311
346 345 344 341 337 336 336 335 329 322 320 320 318 316 314 313 314 315 314 314 314 313 313 312 312 312 313 313 313 315 315 313 313 313 313 316 319 321 322 323 323 324 325 325 324 321 320 320 318 316 314 312 310 309 309 309 309 309 309 309 310 310 313 320 324 327 328 328 329 328 328 327 322 317 316 316 314 313 312 312 312 312 312 311 311
346 344 343 341 338 336 337 336 333 327 322 321 320 319 316 314 313 314 314 313 313 314 314 313 313 313 314 313 313 315 315 313 312 312 312 315 317 319 321 323 323 323 324 324 322 319 319 320 318 317 315 312 309 309 310 310 310 310 310 310 311 311 317 323 324 324 324 323 324 322 320 316 314 312 312 312 311 312 312 312 312 312 312 312 312
346 344 343 342 339 337 337 337 336 333 327 322 321 322 321 317 315 313 313 313 313 313 313 313 313 313 313 313 313 314 314 314 312 312 313 314 316 318 319 322 323 323 323 323 323 322 321 321 320 319 316 312 310 310 309 310 310 310 311 310 312 311 315 322 322 320 321 323 321 316 313 312 312 312 312 312 311 312 311 311 312 312 312 311 311
345 343 343 343 340 338 338 338 337 335 331 326 321 322 325 323 320 317 317 316 315 315 314 314 314 313 313 313 313 314 316 316 313 312 313 313 315 317 319 320 322 322 322 322 323 323 323 322 322 320 317 316 313 311 309 310 311 310 311 310 311 312 312 319 321 318 318 321 319 314 312 312 312 311 311 311 311 311 311 311 312 311 311 311 311
345 343 343 343 341 339 339 340 339 337 335 331 324 321 325 327 324 323 322 322 323 322 321 320 319 317 314 314 313 313 318 317 314 313 312 312 314 316 318 320 320 321 322 321 322 323 324 324 323 322 320 319 316 313 310 309 310 310 311 310 310 311 310 314 316 314 313 315 316 313 311 311 311 311 310 310 311 310 310 311 311 311 311 310 311
345 342 342 342 341 340 339 339 339 339 338 336 330 324 324 327 328 327 326 327 327 327 327 326 324 321 317 316 314 317 321 319 316 316 313 312 313 315 318 320 320 321 322 323 322 322 323 325 325 323 322 321 319 316 313 311 310 309 310 310 309 309 311 315 315 314 315 315 314 310 309 310 309 310 309 309 309 309 310 309 310 310 309 310 310
345 343 342 341 342 341 339 340 340 339 340 339 335 331 325 325 329 329 328 329 330 330 328 326 324 322 320 320 322 328 331 326 321 318 316 314 313 313 316 319 320 321 323 325 324 322 322 324 326 325 325 323 321 319 318 315 312 311 310 309 309 310 312 316 317 315 315 313 310 309 309 309 308 308 308 308 308 309 309 308 308 308 308 309 308
345 344 342 341 341 341 340 342 341 339 339 340 338 337 331 327 331 331 330 330 330 330 328 328 328 324 323 327 331 334 334 333 329 323 321 319 316 313 313 317 320 321 324 326 327 325 322 323 325 327 326 325 323 321 321 319 317 316 314 313 311 312 312 313 315 317 316 313 309 309 309 309 309 309 308 308 308 308 308 308 308 308 308 307 307
345 345 343 341 340 340 340 341 341 340 340 339 340 339 335 333 333 331 333 334 332 331 332 333 334 330 329 333 335 335 335 334 333 329 326 323 321 316 312 314 318 321 323 326 328 327 325 323 325 327 326 325 324 322 321 322 321 319 318 317 314 313 312 312 316 320 320 315 309 309 310 309 310 309 310 309 308 308 308 308 308 307 307 307 307
344 344 342 340 339 340 339 339 341 341 340 340 340 339 339 338 336 332 332 334 334 334 335 336 336 333 333 336 337 336 336 335 334 334 331 325 324 322 315 312 314 318 322 325 327 327 327 325 325 328 327 326 326 324 322 322 323 322 321 319 317 315 314 315 319 323 320 313 309 311 311 310 310 310 310 309 309 309 308 308 308 308 307 308 307
343 343 341 340 339 339 338 338 339 339 339 340 340 340 340 340 340 336 333 333 335 336 337 337 337 335 335 337 336 335 337 336 335 335 334 329 327 325 321 315 311 314 320 324 326 327 327 327 327 327 328 329 329 329 326 323 323 324 324 323 321 319 319 322 324 324 320 314 313 313 312 312 310 310 310 309 309 308 308 308 308 308 308 308 307
341 342 342 341 340 339 337 337 338 337 338 339 340 340 340 340 341 340 337 336 336 337 338 337 336 335 336 337 334 335 337 337 335 335 335 334 331 328 326 322 316 311 315 324 328 328 327 328 329 327 328 332 332 332 329 325 323 325 326 325 323 323 324 326 326 325 323 318 317 317 315 313 311 310 310 309 309 308 308 308 307 308 308 308 308
341 341 342 342 340 339 338 338 337 337 338 339 340 340 340 341 341 340 339 338 338 338 338 337 336 334 336 337 336 337 338 336 335 335 337 337 335 333 330 330 328 318 314 325 330 329 330 329 329 328 330 333 331 330 328 326 325 325 326 326 326 327 328 329 328 327 326 321 319 320 317 314 312 310 309 309 308 308 308 307 308 308 308 309 309
341 340 341 341 339 337 338 338 337 337 337 338 340 340 340 341 341 340 339 339 339 339 338 338 336 333 335 336 337 337 337 337 335 335 336 338 337 335 334 333 333 328 318 324 331 330 331 331 330 330 332 332 331 329 328 326 327 328 329 329 329 330 330 330 329 329 329 326 322 320 318 314 312 309 308 308 307 308 308 308 309 309 310 311 312
341 340 340 340 338 337 337 337 336 336 336 337 339 339 340 341 340 339 339 339 338 339 339 338 335 334 335 335 336 337 337 337 334 334 336 337 337 335 334 333 333 332 324 322 328 330 330 330 331 331 332 332 330 329 328 327 327 330 330 330 331 330 330 330 330 330 330 329 325 320 317 313 310 309 308 308 309 309 310 311 312 313 314 315 315
340 340 340 340 338 337 337 336 336 336 335 336 339 339 338 339 339 338 338 338 338 339 339 338 336 336 336 336 336 336 337 338 336 335 336 336 336 333 332 334 333 333 328 323 325 328 329 328 328 330 331 331 329 328 329 328 328 330 331 331 331 330 330 330 330 330 329 330 326 319 316 312 309 310 310 312 312 313 314 315 315 316 317 318 319
339 339 339 340 339 337 337 337 337 337 335 337 339 338 337 337 337 336 336 336 337 338 338 338 337 337 337 336 336 335 335 337 336 334 334 333 334 333 332 333 333 332 329 325 323 324 328 328 325 328 328 330 329 328 329 329 330 330 330 330 330 330 331 330 330 330 329 330 325 317 315 312 311 312 314 316 316 317 317 318 318 319 320 321 320
340 339 339 340 338 337 337 337 337 337 336 337 338 337 334 334 334 334 335 335 335 336 336 337 337 337 338 335 335 336 335 335 335 334 334 333 333 333 332 332 333 332 329 328 326 323 325 325 325 328 328 329 330 330 330 330 330 330 330 330 330 331 331 330 331 330 330 330 326 322 317 312 312 314 316 319 320 321 322 322 322 322 322 321 321
340 339 338 338 337 336 336 336 336 336 336 336 336 334 333 333 334 334 334 334 334 334 334 335 337 338 337 335 335 336 336 335 334 335 336 335 333 332 332 331 332 332 329 328 329 327 323 321 325 328 328 329 330 330 331 330 330 330 331 330 330 331 330 329 330 330 330 329 328 327 322 316 315 316 317 320 322 325 327 326 325 325 325 324 324
340 339 337 337 336 336 336 335 335 335 335 335 334 333 333 333 333 333 333 332 332 332 332 333 334 336 336 334 334 335 336 336 334 334 335 333 331 331 331 331 331 331 330 328 328 328 325 322 324 328 329 329 330 330 331 331 330 330 330 329 329 330 330 329 330 330 329 328 328 328 326 324 323 319 317 320 324 328 329 329 328 328 328 327 327
340 338 337 337 335 335 335 334 335 335 335 334 334 335 334 334 333 333 331 331 331 330 331 331 332 333 333 332 332 334 336 337 336 334 333 332 331 331 331 332 331 330 330 329 328 328 328 325 323 326 330 330 329 330 330 331 331 329 330 329 329 330 330 330 330 329 329 328 327 327 327 328 328 325 321 322 326 328 328 329 329 329 329 329 328
340 338 337 336 335 333 333 333 333 334 335 335 335 335 334 334 334 334 332 331 331 330 330 330 330 331 333 333 332 333 335 336 337 334 332 333 334 332 330 331 331 330 329 329 329 328 329 328 324 324 328 330 329 329 330 331 331 330 329 329 330 329 330 331 330 330 329 326 326 325 326 327 329 329 326 326 328 327 327 328 328 328 328 328 328
339 339 336 334 333 332 331 332 332 333 335 335 335 335 334 334 335 335 333 331 331 331 330 329 330 332 335 335 333 331 333 334 335 334 332 332 334 333 330 330 331 331 329 329 328 327 329 330 328 323 326 330 330 329 330 330 330 330 329 329 330 329 330 331 330 331 329 326 325 323 323 325 327 329 328 329 329 326 326 327 327 327 327 327 328
339 339 336 332 331 332 332 333 333 332 332 332 333 334 334 334 335 335 334 333 333 333 332 331 329 331 334 334 332 330 331 331 332 332 331 331 332 332 330 330 331 331 330 330 329 328 328 329 330 326 326 331 332 330 330 330 330 330 329 329 329 330 330 330 331 332 329 327 326 324 324 326 325 327 328 330 330 328 326 326 326 325 325 326 327
339 339 337 335 334 333 333 334 334 333 332 330 330 331 331 332 332 333 334 334 334 333 333 333 331 331 332 332 330 329 330 330 330 330 330 330 331 332 332 330 330 330 331 331 329 329 328 327 329 328 327 330 333 332 330 330 329 329 329 330 329 330 331 331 331 332 330 328 326 325 327 328 326 328 329 330 330 328 327 326 323 322 322 323 325
340 339 338 338 337 335 335 336 336 336 335 333 333 333 333 332 332 332 332 333 334 334 333 333 333 332 332 331 330 329 330 330 330 330 329 329 330 331 331 330 330 330 330 331 331 330 326 324 328 329 327 328 332 333 330 329 330 329 329 330 329 329 331 332 332 332 331 329 326 325 327 329 329 329 329 328 328 327 326 325 324 325 323 319 323
340 340 339 339 339 337 337 337 337 337 337 337 337 337 336 336 335 333 332 333 334 334 333 333 333 333 333 332 330 328 328 330 331 331 330 330 330 330 330 330 331 330 330 330 331 330 327 325 327 329 328 328 332 332 329 328 329 329 329 330 329 330 331 331 331 332 331 329 326 324 326 329 330 329 328 327 326 324 323 322 323 326 324 320 322
340 339 338 338 338 337 336 336 336 337 337 338 338 337 337 337 337 336 335 336 336 335 334 333 333 334 333 332 331 329 327 328 330 330 331 331 331 331 331 331 331 331 330 330 331 331 329 327 327 328 329 329 331 330 328 328 328 329 330 330 330 329 330 330 330 332 331 329 328 326 328 330 330 329 328 326 325 322 321 320 320 323 324 323 322
339 338 338 338 337 337 336 336 335 335 335 336 336 336 336 336 337 337 337 336 336 335 334 333 334 335 334 332 331 331 330 328 329 329 330 330 331 332 332 332 332 332 331 331 331 331 329 327 327 329 329 329 330 329 328 328 328 329 329 330 330 329 329 330 330 332 331 330 329 328 328 329 329 329 327 326 324 322 321 320 321 321 322 324 325
337 337 338 337 337 337 336 336 336 335 335 335 335 335 335 336 335 335 335 335 335 334 333 333 334 334 334 333 333 332 332 330 331 331 330 330 331 332 332 331 332 332 332 331 331 331 330 327 325 327 329 329 330 330 329 328 328 329 328 329 330 329 330 330 330 331 330 329 329 328 328 327 328 329 327 325 325 325 325 322 321 321 321 324 326
336 336 337 337 337 337 336 336 336 336 336 336 335 336 336 336 335 334 333 334 334 334 333 333 333 334 334 333 332 331 332 332 332 332 331 330 330 331 332 332 332 332 332 331 331 332 330 328 325 325 328 329 329 330 329 329 327 327 329 329 329 329 330 329 330 331 330 329 328 328 328 327 328 329 327 326 327 328 326 322 320 321 321 322 325
334 334 335 335 335 336 336 336 336 336 336 336 336 336 336 336 335 335 335 334 335 334 334 334 333 334 334 331 329 329 331 332 333 332 332 331 331 330 330 331 332 332 332 331 332 332 331 329 327 326 328 329 329 329 329 329 328 327 327 329 329 329 329 329 330 330 330 329 328 328 328 327 328 329 327 327 328 328 326 322 320 321 321 321 323
332 332 333 334 334 334 334 334 334 335 335 335 335 335 336 336 336 336 336 335 335 334 334 334 334 334 334 333 331 330 331 332 331 332 331 331 331 330 330 331 332 332 332 331 331 331 331 330 328 329 329 329 329 329 328 328 328 328 327 328 329 329 329 330 330 330 330 330 329 329 329 328 329 329 328 328 328 328 327 324 322 322 322 321 320
331 331 332 332 332 332 333 332 332 333 333 334 334 334 336 336 335 335 335 335 335 334 333 334 334 334 334 334 333 332 332 331 331 331 332 331 330 330 331 331 332 331 331 330 330 331 331 330 329 330 330 329 328 328 328 328 328 329 328 327 328 328 329 330 330 330 330 329 329 329 329 328 328 328 328 328 328 329 327 323 323 323 320 319 319
331 331 331 331 331 331 331 332 332 332 332 332 332 333 335 335 335 335 335 334 333 332 331 332 332 331 331 333 333 332 330 330 331 331 332 331 331 330 331 331 331 330 328 327 329 330 330 330 330 330 329 327 326 326 327 329 329 329 328 328 329 329 328 329 329 329 329 329 329 328 328 328 328 327 328 328 328 329 325 322 324 324 320 319 320
330 330 330 330 330 331 331 331 331 331 331 331 332 333 334 334 335 335 335 335 334 332 330 331 331 329 328 329 330 330 329 330 331 331 332 332 331 330 330 330 330 329 327 327 329 330 331 331 330 329 328 326 326 326 325 327 329 328 328 329 329 330 329 327 328 329 329 329 329 328 328 329 328 327 328 328 329 328 325 322 324 325 322 321 320
329 329 329 329 330 330 330 330 331 331 331 331 331 332 333 333 333 333 334 334 334 333 332 330 330 330 330 329 329 330 331 332 332 331 332 332 332 331 330 330 329 327 327 328 330 330 330 330 330 329 327 326 326 326 324 326 328 328 329 329 329 330 329 328 329 329 328 328 328 329 329 328 328 327 327 328 328 329 327 323 324 325 323 322 320
326 327 327 327 328 328 328 328 328 329 330 330 330 330 331 332 332 332 332 333 333 334 333 331 330 331 332 331 329 329 330 332 332 331 332 332 332 331 330 330 330 327 327 329 330 329 328 328 328 328 327 326 326 326 326 326 328 329 329 330 329 329 328 329 330 329 329 329 328 329 329 328 328 327 327 328 328 329 328 325 324 324 324 323 322
Wind_Speed
16 16 18 20 18 17 15 14 12 11 11 12 14 14 14 14 13 12 11 9 8 6 4 4 5 6 7 7 10 12 13 14 16 17 17 19 18 18 17 16 17 17 16 17 17 18 18 17 16 16 15 14 14 14 14 14 15 15 14 14 14 14 14 14 14 14 14 14 14 14 14 14 13 12 11 9 8 7 8 12 11 10 12 12 11
18 17 18 20 19 17 15 13 12 11 12 13 15 15 15 14 14 13 11 9 8 6 5 5 6 7 8 8 11 13 13 15 16 17 18 19 18 17 17 17 17 18 18 18 18 19 18 17 17 17 16 15 15 15 15 15 15 15 14 14 14 14 13 13 14 14 15 14 15 14 13 13 12 11 9 8 6 6 8 10 9 9 11 11 10
18 17 18 20 18 17 15 13 11 11 12 14 15 15 15 15 14 13 11 9 8 7 6 7 8 8 8 9 11 13 13 15 16 17 18 18 18 17 17 18 18 18 18 19 19 19 19 18 17 17 17 16 15 15 15 15 14 15 14 14 14 14 13 13 14 15 16 16 15 13 12 10 9 8 7 6 5 5 6 6 6 8 9 9 9
18 16 18 20 18 17 15 13 11 11 13 15 16 16 16 15 14 13 11 10 8 8 8 8 9 9 9 10 11 12 13 15 16 17 18 18 18 17 18 19 18 18 18 19 19 19 19 18 18 18 17 16 16 15 15 14 14 14 14 13 13 13 13 13 14 14 14 14 14 12 10 8 6 6 5 3 2 3 3 4 5 8 9 9 10
17 16 19 20 19 17 15 13 11 12 14 15 16 16 16 15 14 13 11 10 10 9 9 10 11 10 10 10 10 11 12 15 16 17 17 18 18 18 18 19 18 18 19 19 19 19 19 18 18 17 16 16 15 15 14 14 13 13 12 11 11 11 11 11 11 11 9 11 14 11 9 7 5 3 2 1 1 2 3 5 7 10 11 12 14
16 16 18 20 19 17 16 13 11 13 15 15 16 16 15 15 13 12 12 11 11 10 11 12 12 11 11 10 10 10 11 14 16 17 17 18 18 18 18 18 18 18 18 19 19 18 18 17 16 16 15 15 14 13 13 12 11 10 9 9 9 9 8 8 8 8 7 10 13 10 9 8 6 5 3 3 3 5 7 8 10 12 13 15 17
15 16 18 19 19 18 15 13 12 14 15 15 15 15 15 14 13 13 12 12 11 11 12 13 13 12 11 10 10 10 11 13 16 17 17 18 17 17 17 16 17 17 17 18 17 17 16 15 15 14 14 13 12 12 11 10 10 9 8 8 8 8 8 8 8 7 9 11 10 10 9 8 9 9 8 8 9 10 11 12 14 15 17 18 19
15 16 17 16 18 17 15 13 12 14 15 15 15 14 14 14 14 13 13 12 11 12 13 13 13 12 12 11 10 10 11 13 15 16 16 16 16 17 17 16 16 16 16 16 16 15 14 13 13 12 12 12 11 10 9 9 9 9 9 9 9 10 10 10 9 9 12 12 10 10 10 10 10 10 11 13 14 14 14 16 17 18 20 21 21
15 16 17 15 17 17 14 12 13 14 14 13 13 13 14 14 14 13 13 12 13 13 13 13 13 12 12 10 10 10 11 13 14 16 16 15 16 16 15 15 15 14 14 15 15 13 12 12 12 11 10 10 9 9 9 9 9 9 9 10 11 12 11 11 13 14 13 13 12 11 11 12 10 11 15 16 16 16 17 18 18 19 20 21 22
15 16 16 14 16 17 14 12 13 14 13 12 11 12 13 13 13 13 13 13 13 13 13 13 13 12 11 10 10 11 11 13 13 14 14 14 15 15 15 14 13 13 12 14 13 11 11 11 11 10 9 9 8 9 8 8 9 9 11 11 12 12 12 13 16 15 13 13 14 14 14 13 11 13 16 16 16 18 18 18 18 19 20 21 21
14 15 15 14 16 16 14 12 12 13 12 11 10 11 12 12 12 12 12 12 13 13 13 13 13 12 11 10 10 11 12 12 12 12 12 13 14 14 13 12 12 12 11 13 12 11 10 10 10 9 9 9 9 9 8 9 9 11 12 13 14 14 14 17 17 14 14 14 14 15 15 14 11 14 15 16 17 17 18 18 19 20 20 20 20
14 14 14 14 16 15 14 12 12 13 12 10 10 10 11 10 10 10 11 11 12 12 13 13 13 13 12 11 10 11 12 11 12 11 11 12 13 13 12 11 12 12 12 12 12 11 10 9 9 9 9 10 10 9 9 10 11 13 14 15 16 15 17 19 17 15 16 15 15 15 14 13 13 15 16 16 16 16 18 19 20 20 20 20 19
13 14 14 14 16 15 14 12 11 11 11 10 9 8 9 10 10 10 10 10 11 12 12 12 12 12 12 11 10 10 12 12 12 11 11 12 12 12 11 12 12 12 13 12 11 11 11 10 11 10 10 10 11 11 12 13 15 16 17 17 17 17 19 19 16 17 16 15 15 14 13 13 14 17 17 16 16 17 18 18 19 19 18 18 17
13 14 14 14 16 15 13 12 11 10 10 9 8 8 9 10 10 9 9 9 10 11 11 11 11 11 11 10 9 9 10 11 11 11 11 12 12 11 11 12 12 13 13 13 13 12 13 13 12 11 11 12 12 13 15 16 17 17 18 18 17 18 20 18 17 17 17 17 16 14 14 14 15 17 17 17 17 17 17 17 17 16 16 15 15
13 15 14 13 15 15 14 12 11 10 10 9 9 8 8 9 9 9 8 8 9 10 10 10 10 10 10 10 9 9 9 10 10 10 10 11 11 11 10 11 12 12 13 14 14 14 14 13 12 12 12 13 14 15 16 17 18 18 18 18 17 19 20 16 16 18 18 18 16 15 15 16 17 17 16 16 16 16 16 15 15 14 14 13 12
13 15 14 13 14 15 14 13 12 11 10 10 9 9 9 8 8 8 8 8 9 9 10 9 9 9 8 9 9 9 9 10 10 10 10 11 11 10 10 10 11 12 13 15 15 14 13 12 12 11 12 13 14 15 16 16 17 17 18 19 18 19 20 17 16 17 18 17 15 15 15 16 16 16 15 15 14 14 13 13 13 12 12 11 10
14 15 14 15 14 15 15 14 13 12 11 10 10 9 9 9 9 9 8 9 9 10 10 9 9 8 8 8 9 9 8 9 10 10 9 10 10 10 10 9 9 10 12 14 14 13 12 12 11 10 12 13 14 15 15 16 16 16 17 18 18 18 20 18 16 16 17 16 14 14 14 15 15 15 14 13 13 12 11 11 10 10 10 9 8
14 15 14 15 15 15 15 15 14 13 12 11 10 10 10 10 9 9 8 8 9 9 9 9 8 8 8 8 9 9 8 7 8 9 9 10 10 10 10 10 8 8 10 12 13 12 12 11 9 9 11 12 13 14 15 15 15 15 15 17 17 16 19 18 15 14 15 15 13 13 13 13 14 14 13 12 12 11 10 10 9 9 8 8 7
14 15 14 14 14 15 15 15 14 13 13 12 11 11 10 10 9 9 8 8 8 8 9 8 8 8 8 8 8 7 6 5 6 8 8 9 10 10 11 10 9 8 8 10 11 10 10 10 9 8 9 11 12 13 14 14 14 14 14 16 15 15 18 16 14 14 14 14 13 13 13 13 13 12 11 11 10 10 9 9 8 8 7 7 6
13 14 15 14 14 14 16 15 15 14 13 13 12 11 11 10 10 9 8 8 8 8 9 9 9 9 8 9 9 7 5 4 2 5 7 8 9 10 11 11 11 9 8 8 8 8 8 7 8 8 8 10 12 13 13 13 13 13 14 14 14 15 17 15 14 13 13 12 12 12 12 12 12 11 10 10 10 9 8 8 8 7 7 6 5
11 12 13 15 15 14 15 15 15 15 14 13 12 12 11 11 10 9 9 8 8 8 9 9 9 9 9 10 10 9 6 3 2 3 5 7 7 8 10 12 12 11 10 9 8 7 7 6 6 7 7 9 10 11 13 14 13 13 14 13 13 15 16 15 14 12 11 10 10 10 11 12 11 10 10 9 9 8 8 8 7 7 6 6 5
11 12 12 14 14 14 15 15 15 15 15 14 13 13 12 12 11 10 10 10 9 9 9 9 9 9 9 9 9 10 9 6 5 4 4 6 7 8 9 12 13 13 12 10 9 7 6 6 5 6 6 7 8 9 11 14 14 13 13 13 15 15 14 15 14 12 10 8 8 8 9 10 10 10 9 9 8 8 7 7 7 7 6 6 5
10 12 12 13 13 14 14 14 14 15 15 14 13 13 13 12 11 10 9 10 9 8 8 8 8 8 8 8 9 11 11 10 9 7 6 5 6 7 8 10 12 13 13 12 11 9 7 6 5 5 6 6 6 7 8 11 13 13 13 14 15 14 14 15 13 11 8 8 8 7 8 8 7 8 8 8 8 7 7 6 6 6 6 6 5
10 10 11 11 12 13 13 13 13 14 14 13 13 13 13 13 11 10 9 9 9 8 8 8 8 9 9 10 11 12 11 11 11 10 7 5 5 6 7 8 11 13 14 14 12 10 8 7 7 6 6 6 5 5 6 7 10 12 14 14 14 14 14 13 11 9 8 8 8 7 7 7 6 6 6 7 7 7 7 6 6 5 5 5 5
10 10 10 10 11 12 11 12 12 12 12 13 12 12 13 12 11 11 11 10 10 10 10 9 10 10 10 10 10 10 10 11 11 10 8 6 5 5 5 7 8 12 14 13 10 10 9 8 8 7 6 6 6 6 6 5 7 10 13 13 13 14 13 11 10 9 7 7 7 6 6 6 5 5 5 6 6 6 6 6 6 6 5 5 5
10 10 9 10 11 11 10 11 11 11 12 12 11 11 12 11 11 12 12 12 11 11 11 11 11 12 11 10 9 9 10 9 10 11 9 7 6 6 5 6 6 9 13 12 9 10 10 9 9 8 7 7 7 6 6 5 6 8 12 12 12 12 10 8 8 7 5 6 6 5 5 5 5 5 6 6 6 7 7 7 7 7 6 6 6
8 9 9 9 10 10 10 10 10 11 12 12 11 11 11 11 11 12 12 11 11 11 11 12 12 12 12 11 10 9 9 10 11 12 11 8 8 7 6 6 6 7 12 13 10 10 11 11 10 10 9 9 8 7 7 6 7 8 9 10 9 8 7 6 5 5 4 4 5 5 5 4 4 6 6 7 7 7 7 7 7 7 7 7 7
6 8 9 9 9 10 9 9 10 11 12 11 10 10 11 10 10 11 12 11 10 11 11 12 13 13 13 12 11 9 9 11 11 11 11 10 8 9 8 6 7 8 11 12 11 9 11 13 11 11 11 10 9 8 7 7 8 8 7 7 7 6 6 5 4 4 3 3 4 5 4 5 5 6 7 7 7 7 7 7 7 7 7 7 7
5 7 8 8 8 8 8 9 9 9 9 9 10 10 10 10 10 10 11 10 10 11 11 12 13 12 12 12 11 10 10 11 11 11 11 12 10 10 9 7 7 8 10 11 12 11 12 14 13 12 12 11 10 9 7 7 7 7 7 6 6 5 5 5 4 4 4 3 2 3 4 6 7 8 9 8 8 8 7 7 7 7 7 7 7
4 5 6 6 7 7 7 8 8 8 8 8 9 9 9 9 9 9 9 8 9 10 10 11 12 11 11 11 11 11 12 12 14 12 12 12 11 10 10 9 8 8 9 10 12 13 11 13 15 15 13 11 10 9 8 7 7 7 7 6 5 4 5 4 4 4 4 3 2 2 4 6 8 9 10 10 9 8 7 7 6 6 6 6 6
3 4 5 5 6 7 7 7 7 7 7 8 8 8 7 7 7 8 7 7 8 9 9 9 10 10 10 11 10 11 12 12 13 11 10 11 11 10 10 9 8 8 9 10 11 13 13 14 16 16 14 12 11 11 10 8 8 7 7 6 4 4 4 4 5 5 4 3 2 3 4 7 8 9 11 11 9 8 7 6 6 6 6 5 5
0 3 4 5 5 6 6 7 7 7 7 7 7 6 5 6 6 6 7 7 7 8 8 9 9 9 11 11 11 11 12 12 13 10 9 11 11 11 11 10 9 8 9 10 10 11 15 17 17 16 15 13 12 13 11 10 9 8 7 6 4 4 3 3 4 5 6 4 4 4 4 5 5 7 11 12 9 7 6 5 6 5 5 4 5
1 2 5 5 5 5 5 6 6 7 7 6 6 6 6 6 6 6 7 7 7 7 8 9 10 10 11 12 12 12 12 12 12 11 11 12 12 12 12 11 11 9 9 11 12 12 14 17 17 15 16 16 15 14 12 11 9 8 8 6 3 3 2 2 3 5 7 6 6 6 5 5 4 5 9 10 8 6 5 5 5 4 4 4 4
1 1 3 4 4 5 5 7 7 7 6 6 6 6 6 6 6 6 7 7 8 8 8 10 11 11 12 13 13 12 12 11 11 12 12 12 13 13 13 12 13 12 10 11 13 13 13 16 18 17 16 17 17 17 14 12 10 8 7 6 3 4 3 3 4 5 6 7 8 8 7 6 5 5 7 7 6 6 5 5 5 4 4 3 3
2 2 3 3 4 5 5 5 6 6 6 6 6 6 6 6 6 6 6 7 8 8 9 10 11 12 11 12 13 13 12 11 11 13 14 13 12 13 14 14 14 13 12 12 13 14 14 15 18 19 18 17 18 18 16 13 12 10 8 6 5 5 5 4 5 5 6 7 7 9 9 8 7 7 6 6 6 6 6 5 4 4 4 3 3
3 3 4 4 4 5 5 5 5 5 6 7 7 7 7 7 7 7 7 7 8 8 9 10 11 11 9 11 13 13 12 12 12 14 16 14 12 14 15 15 15 14 14 15 15 15 16 15 16 19 19 17 18 19 18 16 13 11 10 8 7 6 6 6 6 6 7 7 7 8 10 9 8 8 7 5 5 6 6 5 3 3 3 3 4
2 3 4 5 5 5 4 4 5 6 6 8 8 8 8 9 8 8 8 8 8 9 9 10 11 10 10 11 13 14 13 13 13 14 16 15 13 15 17 16 16 16 16 17 17 16 18 18 17 19 19 17 16 18 19 18 16 13 11 9 8 7 7 8 8 8 8 8 8 9 9 9 9 8 7 6 5 5 5 5 4 3 3 3 3
4 4 4 6 6 6 5 4 4 5 8 8 9 10 11 11 10 10 10 9 9 10 10 10 10 11 11 11 12 14 14 13 15 16 17 16 15 16 18 18 18 18 18 18 18 17 20 21 20 21 22 19 16 17 19 18 17 14 11 11 9 9 9 9 8 8 8 9 10 9 9 9 9 8 7 7 6 5 4 4 4 3 3 3 3
6 6 6 7 7 6 6 6 6 7 8 8 9 11 12 12 12 11 11 11 11 12 13 13 13 12 12 12 12 13 14 14 15 16 17 17 16 18 19 19 19 20 21 21 19 18 20 23 23 23 24 21 16 17 19 18 16 15 13 12 11 10 10 9 9 9 8 10 11 10 10 9 8 8 8 7 7 7 6 5 4 3 3 3 4
7 7 6 6 7 5 4 6 7 8 9 8 8 10 10 11 11 12 13 13 14 15 16 17 16 15 15 15 15 14 15 17 17 17 17 18 18 19 20 21 21 21 22 23 21 19 21 24 25 25 25 22 18 18 20 19 17 16 14 13 13 13 12 11 11 10 10 11 12 12 11 9 8 8 9 8 7 7 7 6 5 5 4 3 3
7 6 5 5 6 5 5 6 7 6 7 8 9 10 10 10 11 12 13 13 14 15 17 17 17 16 16 16 16 16 17 19 20 20 19 19 19 20 21 21 21 21 23 24 23 22 21 22 24 24 24 23 21 22 22 20 19 17 15 15 14 15 14 14 13 12 12 13 13 13 11 10 8 8 9 8 8 7 6 6 5 6 5 3 3
6 6 5 5 6 6 7 8 8 6 5 6 8 10 11 11 11 12 13 13 14 15 16 16 15 15 15 14 16 17 18 20 21 20 20 20 21 20 21 22 21 21 23 24 24 24 23 21 22 24 25 24 24 24 24 22 20 18 17 15 14 15 15 15 14 14 14 14 15 14 13 11 9 9 9 8 7 6 5 6 6 6 6 5 4
6 5 4 4 4 5 6 6 7 8 8 7 6 6 7 7 8 10 11 12 13 14 14 13 12 13 13 13 14 16 17 19 19 19 20 21 21 21 21 22 22 21 22 24 25 25 25 23 22 24 25 25 26 25 24 24 20 17 16 15 14 14 15 15 16 16 16 17 17 16 14 13 11 10 9 8 8 7 6 7 8 7 7 6 5
7 6 5 5 5 4 4 4 5 5 5 6 7 7 5 4 6 7 9 10 10 12 13 12 11 11 12 12 13 14 16 17 17 17 18 19 20 20 21 22 21 20 21 24 26 26 26 25 23 24 26 26 26 25 24 25 22 18 16 15 14 14 15 15 16 17 17 17 18 18 16 14 12 10 10 9 9 8 7 8 8 8 7 7 6
9 7 6 5 4 3 2 3 5 6 6 5 6 7 6 6 6 6 7 7 8 9 11 11 10 11 11 12 11 13 15 16 16 15 15 16 17 17 19 20 20 20 20 22 25 26 27 27 26 26 27 27 26 25 25 25 25 24 21 16 13 14 16 15 15 17 18 17 18 19 17 15 13 11 11 10 9 8 8 9 9 8 8 7 7
9 8 6 5 5 4 5 5 5 6 7 7 7 7 7 7 6 6 6 7 7 8 9 10 10 10 11 11 11 11 13 15 15 14 13 14 15 16 16 18 19 19 19 20 22 23 26 28 28 27 28 27 25 25 25 26 26 26 24 21 17 14 13 14 14 14 16 17 17 17 16 15 14 13 12 10 10 9 8 9 10 9 8 8 8
9 7 6 7 6 7 7 7 7 7 8 9 8 6 5 7 8 9 9 9 8 9 10 11 10 10 10 11 11 11 13 14 14 14 13 14 15 15 15 15 16 18 19 20 20 20 24 27 28 28 27 24 22 22 23 25 25 24 23 25 22 15 12 14 15 14 15 18 18 17 17 16 15 14 12 12 11 10 11 11 10 9 9 9 8
8 7 8 8 8 8 8 7 7 7 8 8 8 6 6 8 9 10 11 11 11 11 11 11 10 9 9 11 11 11 13 13 12 14 14 14 14 15 15 15 15 17 18 19 19 19 22 26 28 27 23 19 17 17 19 21 22 21 21 24 24 21 16 14 15 15 16 18 19 20 18 16 16 15 14 13 12 12 13 13 11 9 10 10 8
7 8 9 9 9 9 8 7 7 7 7 6 7 6 7 8 9 9 10 11 11 11 11 9 10 11 10 11 13 12 12 11 11 13 15 14 14 15 16 16 16 16 14 14 16 17 19 24 28 24 19 17 16 15 16 18 17 18 19 21 22 22 19 15 14 17 18 18 18 19 19 17 16 17 16 15 14 13 13 14 12 10 11 10 9
8 8 8 9 9 9 8 8 8 7 6 5 5 5 6 7 8 8 9 11 11 10 11 10 12 14 12 11 11 11 11 11 11 13 14 14 14 14 14 14 15 15 13 11 13 15 15 19 23 23 19 18 17 17 18 18 17 17 19 20 19 19 18 16 15 17 19 19 18 18 20 20 19 19 18 16 15 13 12 13 13 12 11 10 9
9 9 9 9 8 8 8 8 7 7 7 6 4 4 5 6 7 8 9 11 11 11 13 13 12 12 13 12 11 11 11 11 11 12 13 14 14 15 14 13 14 14 13 12 14 15 16 17 19 20 20 18 17 18 20 20 18 19 20 19 19 19 18 17 15 15 16 17 17 18 20 19 18 18 18 17 16 14 13 14 13 13 12 10 9
Wind_Direction
169 170 174 174 172 176 174 174 177 185 189 186 182 178 176 173 173 172 171 168 171 168 150 140 121 109 103 104 102 102 102 100 102 108 118 121 123 121 115 110 107 105 105 107 108 109 109 110 111 113 115 114 112 112 110 108 107 108 107 106 106 107 106 105 106 104 102 99 98 97 95 94 93 90 85 81 75 70 72 73 70 67 64 62 65
166 171 174 173 172 174 175 176 179 186 190 187 183 179 178 176 175 172 173 175 178 171 157 146 129 118 112 111 108 107 107 105 106 112 121 124 124 119 113 110 108 107 106 107 109 110 109 110 111 112 112 110 110 110 109 107 106 106 106 105 104 104 104 104 104 101 98 94 91 91 91 92 92 89 83 75 69 71 72 74 74 70 62 56 62
168 172 172 172 171 174 175 178 181 186 190 187 184 180 180 180 178 176 177 180 181 172 160 148 132 124 120 114 110 112 113 112 112 115 125 127 123 116 112 111 109 109 108 109 110 112 111 110 110 110 110 109 109 108 108 107 106 106 106 106 105 104 102 101 102 101 98 93 88 83 79 80 86 86 78 68 66 71 60 53 56 64 63 58 65
170 168 170 172 170 174 175 179 183 187 188 187 185 183 183 184 181 179 180 183 180 171 160 147 135 130 124 112 110 116 116 117 118 120 128 129 123 117 113 112 111 111 111 112 113 113 112 111 110 110 109 109 109 107 107 107 108 108 108 108 106 105 101 99 101 99 96 91 81 73 72 75 84 88 78 70 60 50 47 43 53 70 73 72 80
170 165 168 171 170 173 175 179 183 186 186 186 186 184 186 187 185 181 182 182 175 169 158 146 138 134 124 112 112 118 117 117 121 125 130 131 126 120 117 115 115 114 114 115 115 115 114 114 113 113 113 111 110 109 110 109 109 107 106 104 104 105 101 101 102 100 98 88 77 71 72 76 83 99 86 50 39 52 75 75 78 85 86 89 95
167 166 166 170 172 173 174 178 181 183 183 184 185 185 187 188 186 181 180 178 172 166 155 147 142 135 125 116 118 121 117 118 123 127 132 134 129 124 121 118 118 116 117 116 116 117 116 116 114 115 114 114 114 113 113 112 109 104 101 98 98 101 103 107 108 111 103 84 81 80 78 79 84 93 92 78 87 93 95 95 94 96 98 98 98
165 166 163 170 175 173 173 175 177 179 178 180 182 183 186 186 183 177 177 175 170 161 153 148 142 135 128 124 124 120 116 119 124 126 133 135 132 131 127 122 122 121 122 121 121 120 117 116 114 114 114 114 116 117 118 114 109 103 98 95 94 96 101 105 107 115 105 86 85 90 87 86 86 89 92 90 95 95 96 102 101 100 99 98 95
167 166 160 170 177 174 171 172 173 174 175 177 179 182 182 180 179 175 175 172 165 158 154 147 141 137 133 133 129 121 118 120 123 125 131 137 135 134 133 130 129 128 129 129 126 122 118 116 113 112 111 113 117 119 117 111 106 99 96 93 92 96 98 101 101 100 98 95 94 94 94 94 91 90 94 97 98 95 93 98 98 97 96 95 93
167 164 160 169 176 173 169 169 171 172 173 175 177 179 178 178 177 175 172 168 162 157 152 145 142 140 139 139 131 125 122 121 124 126 130 139 139 137 140 141 140 139 138 133 126 119 116 115 111 108 108 112 118 119 112 106 101 97 95 93 93 95 97 103 100 91 92 98 98 97 97 97 97 98 100 102 102 99 97 97 98 97 96 96 95
162 163 163 168 174 172 167 166 169 171 171 170 173 176 178 180 178 175 171 166 161 155 150 146 145 145 145 144 132 126 125 124 126 130 133 138 141 142 146 147 146 144 138 130 125 120 117 113 107 106 108 111 114 114 109 105 101 100 99 99 98 97 101 100 94 96 104 105 107 114 113 106 103 104 102 103 104 104 104 104 103 100 98 97 95
162 164 165 168 172 171 166 164 167 169 168 164 166 174 180 181 179 177 173 165 159 154 150 149 150 149 150 146 135 127 127 130 130 132 135 137 141 143 146 143 138 137 129 124 124 121 118 114 110 110 112 113 112 110 109 107 106 107 105 104 100 99 100 96 94 99 100 96 98 103 106 102 100 103 103 103 104 105 107 108 106 103 101 98 96
164 165 170 172 171 170 167 162 164 166 164 161 159 169 177 180 180 178 175 165 159 155 152 153 154 153 154 150 141 133 128 133 136 135 133 136 143 144 139 132 130 131 123 121 122 121 121 117 115 115 113 112 111 109 110 111 112 110 108 104 101 101 99 97 102 102 95 94 93 91 92 95 98 101 102 102 102 102 103 104 103 103 102 100 99
163 166 174 175 171 168 167 161 160 163 161 161 157 159 168 177 180 178 176 166 160 157 156 157 158 159 158 154 148 141 132 130 134 137 133 134 141 142 137 131 130 126 120 118 119 122 123 121 120 117 114 112 110 109 111 111 112 110 107 104 100 101 101 103 107 104 102 101 98 99 99 98 101 101 101 100 98 99 98 97 98 99 100 100 99
162 168 174 179 178 168 168 165 159 160 160 162 156 154 159 171 178 178 175 167 162 160 160 161 162 162 159 155 152 148 136 128 131 136 135 134 140 143 140 137 133 126 121 118 121 124 122 123 122 118 116 114 111 109 108 108 108 108 107 104 102 100 98 101 104 102 104 105 103 104 102 99 102 103 102 101 99 100 99 98 98 99 99 99 98
164 173 176 179 182 170 167 168 164 161 162 162 158 155 154 163 171 173 169 163 161 159 162 162 162 161 158 153 149 150 142 135 135 138 137 137 142 146 146 143 139 132 125 122 125 127 124 125 122 119 118 114 112 109 107 106 106 105 105 103 102 101 97 99 103 102 101 100 100 101 102 102 103 105 103 102 100 101 102 102 102 102 101 99 99
171 177 177 177 180 174 169 171 171 166 165 165 161 158 153 155 160 161 160 157 156 152 153 154 157 157 154 150 149 153 152 147 144 144 145 143 146 150 151 151 147 139 130 127 129 128 128 126 121 120 118 114 110 108 108 106 106 105 102 99 96 97 100 105 104 102 101 98 98 100 103 103 103 104 102 102 102 102 103 103 104 103 102 101 100
177 176 173 175 179 179 176 174 174 171 168 165 162 159 155 155 155 154 153 150 144 140 140 140 142 141 143 147 149 156 160 156 149 150 153 150 152 155 157 159 158 149 138 133 132 132 131 127 122 119 116 112 107 107 108 107 107 105 101 98 93 93 97 102 101 101 102 103 105 104 103 103 103 102 101 102 102 103 102 102 104 101 99 99 98
178 180 177 176 177 180 180 176 174 175 169 164 162 160 158 159 159 159 152 145 140 135 132 129 129 130 135 141 149 159 163 160 159 157 158 159 160 163 166 169 171 166 152 143 139 138 136 131 125 119 114 108 104 105 107 107 108 105 105 100 95 97 97 97 99 100 101 103 107 106 104 103 102 101 102 103 103 105 104 104 102 99 97 95 94
181 183 187 183 179 180 183 181 176 178 174 169 167 164 163 165 167 163 152 143 139 134 131 131 132 130 130 134 140 143 139 145 172 171 163 166 166 171 176 178 181 182 174 158 149 146 141 136 128 120 115 108 104 103 104 105 106 105 106 103 103 103 97 95 96 97 100 104 109 109 108 106 104 104 104 104 105 105 105 104 102 101 99 96 92
181 178 185 183 182 183 182 180 179 182 183 181 177 171 168 171 172 162 154 147 142 138 136 136 136 134 133 130 126 132 132 114 160 187 177 175 174 178 181 186 189 190 192 182 166 157 150 145 134 125 119 114 108 105 104 102 102 104 102 103 108 104 98 100 100 101 105 107 111 114 112 109 108 110 110 108 106 104 103 102 103 103 102 100 96
179 177 183 180 183 188 180 176 181 185 188 189 187 183 174 171 170 162 157 151 148 145 140 142 140 139 137 130 132 152 171 158 149 195 195 189 186 185 186 191 196 196 199 200 191 175 163 157 143 133 126 120 115 110 106 103 102 101 102 105 104 102 103 104 102 101 103 105 111 115 113 111 113 114 113 112 111 111 109 107 107 106 105 103 99
179 177 181 181 184 189 184 182 184 186 189 192 194 194 184 175 174 172 165 159 160 155 151 158 155 153 148 142 153 165 172 179 181 196 215 208 199 195 194 195 199 202 203 207 206 196 178 168 159 143 133 125 118 112 107 105 104 102 104 105 102 105 109 107 104 101 101 106 107 107 107 110 114 114 112 114 114 118 119 119 117 114 112 106 101
180 178 182 187 192 194 193 191 188 189 192 194 197 198 194 184 181 184 179 173 176 171 167 173 173 174 173 168 175 175 173 180 187 196 210 216 209 201 201 200 202 205 207 210 210 206 190 175 172 157 140 133 121 110 106 104 106 107 104 101 104 110 110 106 103 103 109 113 108 104 103 104 109 112 115 118 120 122 124 123 120 118 117 112 108
180 179 184 187 196 201 199 198 197 199 196 194 197 198 198 187 181 189 189 186 189 191 189 187 191 192 193 193 190 182 178 187 190 194 206 215 217 209 207 208 207 207 209 212 211 208 200 181 174 173 157 144 136 122 113 106 109 109 104 104 109 110 106 103 102 104 111 112 110 111 107 108 114 120 124 127 131 132 131 128 124 123 121 120 117
177 179 183 185 195 200 200 202 206 207 200 198 201 200 200 188 183 192 194 197 196 197 201 197 198 199 204 212 205 189 185 197 197 191 199 205 213 218 212 211 214 213 209 207 207 205 203 196 183 179 172 162 166 155 142 127 116 110 107 110 111 104 99 103 108 108 112 114 113 112 110 116 126 135 139 138 141 140 140 136 131 130 128 124 117
180 184 186 189 195 195 196 202 204 205 203 202 202 200 200 190 190 198 203 205 198 199 207 203 205 205 207 215 215 201 195 209 207 192 191 193 199 207 203 204 215 225 210 194 195 199 198 203 195 184 181 181 186 174 163 147 125 114 110 112 107 101 99 101 104 100 108 117 114 110 114 126 140 152 154 151 152 150 145 141 136 133 129 123 114
185 188 189 191 195 197 195 197 200 201 203 204 201 197 194 191 200 207 210 210 202 202 208 208 212 210 209 213 215 212 206 215 213 197 189 191 199 199 198 202 206 231 217 193 193 197 193 199 199 191 187 190 194 187 176 162 140 123 116 116 109 104 104 98 93 91 98 112 114 117 127 140 151 157 155 152 151 147 140 135 132 127 123 117 110
187 191 196 191 191 197 197 195 199 201 204 205 202 198 192 195 208 213 214 216 212 206 208 215 218 216 216 218 217 217 215 220 219 202 192 193 203 205 204 211 209 227 225 206 202 201 196 200 202 197 192 194 200 197 185 169 151 136 132 130 121 119 117 111 108 104 100 102 112 117 135 149 150 149 145 141 138 133 129 125 123 118 113 107 99
190 193 196 189 188 192 193 196 199 200 200 201 201 202 201 200 207 215 217 220 218 213 215 220 222 221 220 220 219 219 216 217 219 207 200 201 207 214 212 215 215 223 233 223 211 206 202 203 204 204 202 203 207 208 196 176 160 152 153 147 137 131 124 123 120 113 109 121 146 138 146 155 153 147 136 130 132 127 124 121 118 112 103 96 91
197 196 191 185 189 184 184 193 198 197 195 194 197 208 213 211 213 222 226 225 225 227 229 225 225 226 221 221 221 225 221 217 222 213 207 212 214 223 224 221 221 225 236 234 219 212 208 207 211 213 210 212 214 213 206 186 170 169 167 161 153 130 126 134 125 125 128 139 181 158 154 165 159 150 139 134 134 129 128 124 120 114 105 99 93
201 188 184 187 187 176 177 190 197 198 198 194 196 212 220 218 222 229 233 235 236 240 241 235 232 229 225 228 226 230 230 223 228 219 209 219 219 225 231 228 227 227 230 231 226 220 216 215 218 221 216 216 219 214 208 197 184 181 176 169 163 144 147 150 135 138 142 137 154 138 156 171 170 162 148 141 139 135 133 130 128 121 116 112 103
178 154 178 189 176 166 173 186 197 201 204 203 202 213 216 213 220 229 234 237 239 243 249 246 237 230 230 235 230 231 235 231 231 223 214 224 225 228 231 230 228 227 225 222 224 225 224 221 221 225 222 220 222 216 210 204 194 186 183 185 174 159 157 145 138 143 146 151 153 150 159 155 173 185 162 153 153 153 149 146 146 134 128 125 112
47 150 178 179 163 162 174 184 200 206 209 211 211 214 213 215 217 223 232 236 239 241 249 250 242 239 240 243 239 234 237 238 235 227 223 228 229 229 229 230 228 227 225 220 221 224 225 221 219 224 224 222 225 222 216 209 203 194 195 204 187 173 177 152 154 153 151 159 161 170 176 144 142 191 180 172 171 172 171 174 177 166 164 154 129
101 150 162 166 164 174 189 190 195 201 212 216 214 218 214 217 221 225 234 236 238 238 242 249 249 250 251 251 249 241 237 238 239 238 235 230 230 231 229 232 232 230 227 223 224 225 226 222 218 219 221 224 227 228 224 215 214 208 206 214 205 202 205 183 181 171 161 165 168 173 179 163 154 181 198 197 191 190 187 191 204 204 200 189 160
144 100 131 164 171 188 209 211 205 199 212 223 219 224 225 225 229 230 237 237 236 239 242 248 252 254 256 256 254 250 241 234 240 249 246 233 229 235 234 234 236 234 230 227 226 225 226 224 220 218 220 225 227 228 226 221 222 218 214 218 217 219 214 201 198 184 173 174 173 172 172 173 173 186 199 204 211 212 202 198 203 202 205 205 188
153 156 164 182 186 203 213 217 227 215 212 229 232 237 243 240 238 236 240 242 241 242 244 245 249 252 256 260 261 258 249 240 240 250 252 241 232 237 239 238 238 236 231 230 231 228 226 225 221 218 219 221 223 226 225 223 224 221 219 220 221 224 218 213 204 190 184 176 172 172 170 173 182 194 196 199 223 223 210 210 205 193 192 197 197
188 211 203 207 202 206 209 207 235 243 234 240 244 248 252 249 249 248 245 246 246 248 249 249 250 250 251 258 262 261 257 252 248 251 256 251 242 243 244 242 239 237 235 232 232 229 226 226 220 216 215 213 214 220 222 222 223 222 222 223 224 222 218 217 206 195 190 177 179 182 174 181 192 199 199 198 219 229 218 214 217 214 203 200 200
274 270 261 255 235 220 217 207 220 248 255 258 259 258 258 255 253 255 254 250 249 252 255 257 255 251 250 255 259 260 259 256 253 252 255 253 248 248 249 247 243 240 238 237 234 227 225 227 224 218 214 210 208 214 219 223 226 227 226 225 227 223 218 217 207 197 193 186 190 188 183 193 198 199 203 201 206 217 217 214 224 229 216 210 207
300 296 288 287 278 261 248 243 237 238 250 258 263 264 263 260 255 254 256 255 255 255 256 256 253 249 251 255 258 261 263 260 257 254 253 255 253 251 252 251 248 244 241 239 236 231 227 226 225 221 217 214 210 214 220 224 228 230 230 228 228 227 220 215 209 204 200 196 197 195 191 196 199 200 202 204 209 212 212 211 209 212 221 218 207
310 317 318 312 305 299 288 284 273 255 252 247 248 256 260 263 261 255 251 251 254 255 254 254 251 248 252 256 255 257 262 261 261 259 256 257 257 254 254 252 250 248 246 241 237 234 228 225 226 224 221 216 210 215 221 223 227 231 232 230 227 225 219 214 212 211 207 202 202 201 197 196 199 206 205 204 213 212 207 203 189 193 217 218 199
323 341 359 343 326 327 337 334 315 283 262 251 250 255 256 260 263 262 256 251 253 255 254 255 255 254 256 262 260 257 260 260 259 260 259 258 257 255 252 251 250 250 249 244 238 235 230 228 229 226 221 216 215 219 221 223 225 225 222 221 224 227 225 219 212 211 211 205 204 203 199 196 197 206 210 209 212 208 199 194 181 184 197 192 178
350 352 3 356 344 342 358 4 1 352 324 289 271 266 265 262 255 255 256 251 251 253 254 255 260 260 257 261 263 259 258 260 261 262 263 263 259 255 253 253 252 250 251 247 240 237 234 231 229 226 221 218 220 222 221 221 221 222 221 216 219 226 228 225 214 209 211 206 205 205 203 201 198 207 211 204 204 198 188 188 178 174 179 179 175
36 24 24 19 11 4 14 20 21 17 1 349 332 302 290 276 256 252 255 254 255 256 257 259 263 261 256 258 262 260 256 257 261 263 263 263 259 256 253 254 252 249 251 250 244 241 238 233 228 227 225 220 222 224 222 221 220 221 223 216 216 220 221 222 216 211 212 211 208 206 209 208 199 207 210 196 195 193 186 189 179 169 171 171 168
75 69 58 49 50 37 18 354 349 356 353 355 352 337 326 302 274 267 261 258 260 260 261 263 262 256 252 257 265 269 264 258 259 261 261 259 256 254 252 251 251 248 249 250 248 245 239 233 226 225 227 224 221 223 223 224 222 218 216 216 217 219 220 217 212 211 211 212 210 206 210 208 195 200 205 194 196 198 191 188 177 171 175 174 168
79 61 42 34 35 27 2 326 321 328 331 332 330 320 306 292 283 277 268 259 260 264 267 270 270 267 264 263 266 272 270 266 263 260 257 256 251 250 251 248 246 245 245 247 249 247 240 233 227 224 226 226 224 224 225 226 226 221 218 217 213 219 224 211 201 207 208 208 209 209 213 208 194 197 199 193 199 202 194 189 182 177 179 178 178
64 53 39 22 6 348 336 328 317 314 318 320 321 313 294 284 278 271 268 262 264 274 282 282 279 282 282 276 270 267 266 269 270 263 253 252 251 250 249 245 242 244 245 245 244 244 238 231 227 224 222 223 222 222 227 229 229 225 221 220 215 216 219 204 193 199 203 206 209 210 214 211 200 197 195 192 197 199 192 189 186 182 179 181 189
46 37 18 9 6 359 351 346 338 322 315 311 309 304 280 281 284 278 275 273 275 281 285 282 277 278 279 275 270 264 261 264 268 266 256 252 253 251 246 242 242 242 241 242 238 234 233 229 224 223 224 223 220 220 226 227 226 224 222 224 225 222 212 202 198 194 194 202 208 208 209 213 207 195 192 194 194 196 193 188 185 185 184 186 192
29 11 1 3 3 4 6 4 354 335 325 318 307 290 271 280 286 283 280 277 277 282 283 281 278 275 270 266 264 260 260 260 260 263 261 254 251 248 242 240 240 237 237 240 234 226 227 227 224 223 222 220 217 219 225 222 219 223 225 228 232 232 224 214 210 206 201 198 202 205 207 212 210 196 191 194 195 202 202 192 184 186 190 191 188
19 9 6 6 1 359 358 350 339 330 324 318 306 291 279 279 279 277 276 276 278 283 286 284 282 281 275 267 263 262 263 259 250 254 259 255 246 245 247 243 235 233 237 236 227 223 223 220 221 221 215 211 210 212 220 222 221 225 228 230 232 232 229 221 211 213 213 202 195 200 201 203 207 201 195 192 194 203 205 197 189 189 196 195 186
17 8 0 353 346 341 335 327 316 313 310 299 294 297 289 281 279 277 278 281 283 284 281 278 279 282 280 274 268 263 261 257 247 247 254 255 245 242 248 242 230 228 232 225 214 213 210 207 213 217 212 210 211 210 215 221 225 228 229 227 229 230 224 218 211 212 217 208 196 197 200 200 204 203 198 193 194 198 200 200 196 194 198 193 183
19 8 358 352 348 344 344 345 332 321 317 307 304 313 303 284 276 278 280 279 278 276 273 272 276 276 273 272 271 266 265 263 255 246 247 250 245 241 239 229 223 226 224 216 211 208 205 205 210 212 209 211 216 216 218 221 225 232 234 231 233 234 225 217 212 209 213 208 200 199 200 201 203 202 199 195 194 195 197 203 200 199 203 190 178